Location: Luxembourg
(49.6117°N, 6.1300°E)
Time: 04:37:42
(UTC+01:00)

OTV 5 (USA 277) - Pass Details

Date: 31 January 2019
Orbit: 342 x 346 km, 54.5° (Epoch: 17 February)

Event Time Altitude Azimuth Distance (km) Brightness Sun altitude
Exits shadow 06:44:08 33° 268° (W) 609 ? -14.0°
Maximum altitude 06:45:12 62° 337° (NNW) 393 ? -13.8°
Drops below altitude 10° 06:48:04 10° 59° (ENE) 1,298 ? -13.3°
Sets 06:50:05 0° 63° (ENE) 2,141 ? -13.0°
